Flag for Canada Weather past 2 weeks in Winnipeg, Manitoba, Canada

Now
40 °F

Quite cool.


Feels Like: 36 °F
Forecast: 17 / 43 °F
Wind: 6 mph from Southwest

Location: Winnipeg The Forks

Current Time: Apr 2, 2015 at 3:44:23 AM

Latest Report: Apr 2, 2015 at 3:00 AM


Visibility: N/A

Pressure: 29.48 "Hg

Humidity: 66%

Dew point: 30 °F

Location of WinnipegLocation

Historic Weather in Winnipeg — Graph

°F

Winnipeg temperature yesterday

Maximum temperature yesterday: 60 °F (at 2:00 PM)
Minimum temperature yesterday: 38 °F (at 4:00 AM)
Average temperature yesterday: 47 °F

Past Weeks' High & Low Weather Summary

 TemperatureHumidityPressure
High60 °F (Apr 1, 2:00 PM)100% (Mar 24, 8:00 AM)30.47 "Hg (Mar 24, 8:00 AM)
Low7 °F (Mar 21, 4:00 AM)30% (Mar 22, 4:00 PM)29.31 "Hg (Apr 1, 3:00 PM)
Average33 °F66%30.02 "Hg
* Reported Mar 18 2:00 AM — Apr 2 2:00 AM, Winnipeg, Weather by CustomWeather, © 2015

Note: Actual official high and low records may vary slightly from our data, if they occured in-between our weather recording intervals... More about our weather records

Advertising

Winnipeg weather history for previous 24 hours

 ConditionsComfort  
Time TempWeatherWind HumidityBarometerVisibility
2:00 AM
Thu, Apr 2
44 °FQuite cool.5 mph58%29.46 "HgN/A
1:00 AM42 °FQuite cool.6 mph67%29.47 "HgN/A
12:00 AM44 °FQuite cool.6 mph70%29.48 "HgN/A
11:00 PM
Wed, Apr 1
45 °FCool.5 mph69%29.49 "HgN/A
10:00 PM46 °FCool.5 mph76%29.49 "HgN/A
9:00 PM47 °FCool.6 mph72%29.47 "HgN/A
8:00 PM51 °FCool.8 mph71%29.43 "HgN/A
7:00 PM54 °FCool.6 mph51%29.39 "HgN/A
6:00 PM53 °FCool.6 mph51%29.38 "HgN/A
5:00 PM53 °FCool.8 mph52%29.37 "HgN/A
4:00 PM57 °FRefreshingly cool.6 mph47%29.35 "HgN/A
3:00 PM59 °FRefreshingly cool.7 mph45%29.31 "HgN/A
2:00 PM60 °FRefreshingly cool.10 mph42%29.33 "HgN/A
1:00 PM58 °FRefreshingly cool.2 mph41%29.33 "HgN/A
12:00 PM56 °FRefreshingly cool.3 mph42%29.36 "HgN/A
11:00 AM50 °FCool.7 mph50%29.39 "HgN/A
10:00 AM46 °FCool.7 mph53%29.42 "HgN/A
8:00 AM41 °FQuite cool.6 mph59%29.52 "HgN/A
7:00 AM40 °FQuite cool.5 mph62%29.54 "HgN/A
6:00 AM38 °FChilly.6 mph67%29.57 "HgN/A
5:00 AM39 °FChilly.5 mph67%29.61 "HgN/A
4:00 AM38 °FChilly.3 mph74%29.65 "HgN/A
3:00 AM39 °FChilly.5 mph75%29.69 "HgN/A
Weather by CustomWeather, © 2015

See weather overviewHow to use our weather pages